Location: *
(42.0175°N, 9.4056°E)
Time: 12:50:12
(UTC+00:00)

Cosmos 1898 Rocket - Pass Details

Date: 25 August 2019
Orbit: 755 x 783 km, 74.0° (Epoch: 19 September)

Event Time Altitude Azimuth Distance (km) Brightness Sun altitude
Rises 19:25:58 0° 196° (SSW) 3,236 6.6 -14.2°
Reaches altitude 10° 19:28:20 10° 195° (SSW) 2,309 5.8 -14.6°
Maximum altitude 19:33:35 83° 108° (ESE) 779 3.4 -15.4°
Drops below altitude 10° 19:38:49 10° 21° (NNE) 2,306 6.1 -16.3°
Sets 19:41:12 0° 21° (NNE) 3,232 6.9 -16.7°
